SPACEBEE-9 (44370 NORAD) Tracking and Keplerian Element Data

This shows tracking and keplerian element data for the satellite.

Feedback or suggestion? Click here.




ElementValue
Catalog44370
NameSPACEBEE-9
Epoch Orbit1737
Epoch Day293.24386919
Epoch Year2019
RAAN20.891
Inclination45.0161
Eccentricity0.0015208
Argument of Perigee211.8198
Mean Anonmoly148.1797
Mean Motion15.40105715
Decay Rate5.314E-05
L11 44370U 19037F 19293.24386919 .00005314 00000-0 13787-3 0 9996
L22 44370 45.0161 20.8910 0015208 211.8198 148.1797 15.40105715 17377

Live tracking and technical data element details for SPACEBEE-9 (NORAD 44370). SPACEBEE-9 can be tracked NOW for your location showing map with azimuth and elevation plus other details from your city location.

Track the satellite on the map from your city or location and see movement details for azimuth, elevation, latitude, longitude, range, height, and movement on the map or in text.







IsCatalogInMostPopularTable: catalog: 44370, numindb: 23
Update: records affected: 1



GetName: 44370 SPACEBEE-9

Hit Count: updated at: Wed, 23 Oct 2019 00:13:00 GMT